Skip Page Navigation
NASA JPL Caltech
NASA Logo - Jet Propulsion Laboratory + View the NASA Portal
+ Center for Near-Earth Object Studies
JPL Home Earth Solar System Stars & Galaxies Technology
JPL Solar System Dynamics
BODIES ORBITS EPHEMERIDES TOOLS PHYSICAL DATA DISCOVERY FAQ SITE MAP
IMPORTANT: The SSD Announcement email list is now available. Major changes are coming in the near future, including possible hostname and/or URL changes. To be notified of such changes, subscribe to this email list.

Please visit this page for more details.


JPL Small-Body Database Browser
Search: [ help ]  
300002 (2006 US35)
Classification: Main-belt Asteroid          SPK-ID: 2300002
Ephemeris | Orbit Diagram | Orbital Elements | Mission Design | Physical Parameters | Discovery Circumstances | Close-Approach Data ]

[ show orbit diagram ]
Orbital Elements at Epoch 2458600.5 (2019-Apr-27.0) TDB
Reference: JPL 11 (heliocentric ecliptic J2000)
 Element Value Uncertainty (1-sigma)   Units 
e .04789551324259807 1.52e-07  
a 2.963434569854163 4.1779e-08 au
q 2.82149935017014 4.6138e-07 au
i 8.388378159602697 1.3394e-05 deg
node 229.5887081945616 6.0512e-05 deg
peri 134.5037387693608 0.00010718 deg
M 194.4516118704219 9.437e-05 deg
tp 2459457.367946026065
(2021-Aug-30.86794603)
0.00049575 TDB
period 1863.337143022714
5.10
3.9404e-05
1.079e-07
d
yr
n .1932017516787146 4.0856e-09 deg/d
Q 3.105369789538186 4.378e-08 au
  Orbit Determination Parameters
   # obs. used (total)      190  
   data-arc span      6407 days (17.54 yr)  
   first obs. used      2001-10-16  
   last obs. used      2019-05-02  
   planetary ephem.      DE431  
   SB-pert. ephem.      SB431-N16  
   condition code      0  
   norm. resid. RMS      .52239  
   source      ORB  
   producer      Otto Matic  
   solution date      2019-May-30 09:05:53  

Additional Information
 Earth MOID = 1.82742 au 
 Jupiter MOID = 2.1395 au 
 T_jup = 3.247 
[ show covariance matrix ]

Ephemeris | Orbit Diagram | Orbital Elements | Mission Design | Physical Parameters | Discovery Circumstances | Close-Approach Data ]

Physical Parameter Table
Parameter Symbol Value Units Sigma Reference Notes
absolute magnitude H 16.1   n/a MPO297544  

300002 (2006 US35)          Discovered 2006-Oct-16 by Spacewatch at Kitt Peak
Reference: 20111012/Numbers.arcLast Updated: 2011-10-13

[ show close-approach data ]
Ephemeris | Orbit Diagram | Orbital Elements | Mission Design | Physical Parameters | Discovery Circumstances | Close-Approach Data ]
ABOUT SSD CREDITS/AWARDS PRIVACY/COPYRIGHT GLOSSARY LINKS
FirstGov
(server date/time)  
NASA Home Page
Site Manager:   Ryan S. Park
Webmaster  Alan B. Chamberlin